Details From KFVE - Northern Aroostook Rgnl
To KBML - Berlin Muni
Flight Number -
Tags Decoded
Created
Modified
Stats Distance 253 nm / 469 km
Max Altitude 0 ft / 0 m
Waypoints 9
Social Downloads 3
Likes 0
Share VATSIM

Download

Looking for another format? Having issues loading an existing format? Contact us
Advertisement - Login to hide

Notes

Decoded

Route

KFVE PQI MLT WRAPT CAMPO ROOTS ELSEQ BML KBML

ID Type Via Altitude Latitude Longitude Leg Dist Tot Dist Heading (true) Name
O KFVE APT - 0 ft / 0 m 47.28822˚ -68.32110˚ - 0 nm - -
PQI VOR - 0 ft / 0 m 46.77419˚ -68.09453˚ 32 nm 32 nm 163° / 163° PRESQUE ISLE VOR-DME
MLT VOR - 0 ft / 0 m 45.58672˚ -68.51547˚ 73 nm 105 nm 194° / 194° MILLINOCKET VOR-DME
WRAPT FIX - 0 ft / 0 m 45.52694˚ -69.35003˚ 35 nm 140 nm 264° / 264° -
CAMPO FIX - 0 ft / 0 m 45.44721˚ -70.34854˚ 42 nm 183 nm 264° / 263° -
ROOTS FIX - 0 ft / 0 m 44.99106˚ -70.66589˚ 30 nm 213 nm 206° / 206° -
ELSEQ FIX - 0 ft / 0 m 44.80686˚ -71.21536˚ 25 nm 239 nm 245° / 244° -
BML VOR - 0 ft / 0 m 44.63342˚ -71.18614˚ 10 nm 250 nm 173° / 173° BERLIN VOR-DME
O KBML APT - 0 ft / 0 m 44.58126˚ -71.17909˚ 3 nm 253 nm 174° / 175° -

Altitude Profile

Advertisement - Login to hide

Weather


0- 5 10 15 20 25 30 35+ Temperature / ° C

Clouds and Precipitation
Forecast for 2017-12-17 06:00 UTC. Updated an hour ago

Ground ~20,000 ft ~40,000 ft Winds

KFVE

Details ICAO KFVE (WFK)
Name NORTHERN AROOSTOOK RGNL
Region United States
Timezone America/New_York (UTC-5.0)
Stats Elevation 988 ft / 301 m (AMSL)
Location 47.285504° -68.312735°
Runways 1
Magnetic Variation 17.122° W

METAR

KFVE 170353Z AUTO 30013G24KT 10SM CLR M18/M22 A2991 RMK AO2 SLP150 T11781217

Decode

TAF

KFVE 170309Z 1703/1724 30015G25KT P6SM SKC FM171400 31012G22KT P6SM SKC

Decode

Departure Runways

ID Width Length Bearing (true) Bearing (mag) Surface Threshold Offset Overrun Length
14 75 ft / 23 m 4,591 ft / 1,399 m 115.59° 132.71° Asphalt 0 ft / 0 m 0 ft / 0 m
32 75 ft / 23 m 4,591 ft / 1,399 m 295.61° 312.73° Asphalt 0 ft / 0 m 0 ft / 0 m

KBML

Details ICAO KBML
Name BERLIN MUNI
Region United States
Timezone America/New_York (UTC-5.0)
Stats Elevation 1,161 ft / 354 m (AMSL)
Location 44.574402° -71.176370°
Runways 1
Magnetic Variation 15.217° W

METAR

KBML 170352Z AUTO 00000KT 4SM -SN OVC026 M10/M13 A3008 RMK AO2 SNB21 SLP213 P0000 T11001133

Decode

TAF

Not found

Destination Runways

ID Width Length Bearing (true) Bearing (mag) Surface Threshold Offset Overrun Length
18 100 ft / 30 m 5,204 ft / 1,586 m 164.25° 179.47° Asphalt 0 ft / 0 m 0 ft / 0 m
36 100 ft / 30 m 5,204 ft / 1,586 m 344.25° 359.47° Asphalt 0 ft / 0 m 0 ft / 0 m

Popular Alternatives